Weather Roundup
Issued by NWS

Home | Current Version | Previous Version | Graphics & Text | Print | Product List | Glossary Off
Versions: 1 2 3 4 5 6 7 8 9 10 11 12 13 14 15 16 17 18 19 20 21 22 23 24 25 26 27 28 29 30 31 32 33 34 35 36 37 38 39 40 41 42 43 44 45 46 47 48 49 50

093
NZUS93 KARX 101159
HRRWXR

CURRENT HOURLY OBSERVATIONS ACROSS
MUCH OF THE UPPER MISSISSIPPI VALLEY
NATIONAL WEATHER SERVICE LA CROSSE WI
600 AM CST WED FEB 10 2016


...SOUTHEAST MINNESOTA...


CITY           SKY/WX    TMP DP  RH WIND       PRES   REMARKS
ROCHESTER      CLOUDY    -1  -6  79 NW7       30.06R WCI -14
ROCHESTER/MAYO FAIR       3  -4  72 NW6       30.08R WCI  -8
WINONA         PTCLDY     3  -4  72 NW7       30.12S WCI  -9
AUSTIN         CLOUDY     0  -2  92 CALM      30.06F
ALBERT LEA     CLOUDY     3   0  85 CALM      30.07F
DODGE CENTER   CLOUDY     1  -6  71 NW3       30.06R
PRESTON        CLOUDY    -1  -7  74 NW6       30.06S WCI -13
OWATONNA       CLOUDY     1  -4  78 CALM      30.08F
FARIBAULT        N/A      0  -6  78 CALM      30.09F
$$

...ELSEWHERE IN MINNESOTA...


CITY           SKY/WX    TMP DP  RH WIND       PRES   REMARKS
MINNEAPOLIS    CLOUDY     4  -5  66 N6        30.12S WCI  -7
INTNL FALLS    CLOUDY   -14 -19  79 NE7       30.12F WCI -30
DULUTH         CLOUDY   -10 -15  78 NW8       30.04R WCI -26
RED WING       CLOUDY    -2  -9  71 CALM      30.11S
REDWOOD FALLS  LGT SNOW   7   0  73 E3        30.11S
MANKATO        CLOUDY     5   0  78 N3        30.10S
WORTHINGTON    CLOUDY    12   7  79 E7        30.04F WCI   2
FAIRMONT       CLOUDY     7   0  72 CALM      30.08S
$$

...SOUTHWEST WISCONSIN...


CITY           SKY/WX    TMP DP  RH WIND       PRES   REMARKS
LA CROSSE      PTCLDY     0  -9  65 CALM      30.10R
PRAIRIE DU CHI CLOUDY     1  -7  68 CALM      30.10R
BOSCOBEL       PTCLDY    -4  -9  79 CALM      30.10R
LONE ROCK      CLOUDY     2  -7  66 W9        30.06R WCI -13
PLATTEVILLE    CLOUDY     2  -4  75 W6        30.03S WCI  -9
FORT MC COY    PTCLDY    -8 -11  86 CALM      30.07R
VIROQUA        FAIR      -2  -8  76 NW8       30.01R WCI -17
WIS DELLS      PTCLDY     3  -4  72 NW5       30.00S WCI  -7
$$

...ELSEWHERE IN WISCONSIN...


CITY           SKY/WX    TMP DP  RH WIND       PRES   REMARKS
MILWAUKEE      PTCLDY     9  -1  64 NW9       29.97R WCI  -4
MADISON        PTCLDY     6  -2  69 NW8       29.99F WCI  -7
GREEN BAY      CLEAR      5  -6  60 NW8       29.97R WCI  -8
EAU CLAIRE     NOT AVBL
BLACK RVR FLS  FAIR     -11 -15  79 NW3       30.07R
MEDFORD        MOCLDY    -1  -5  83 W5        29.95R WCI -11
WAUSAU         CLOUDY     8  -1  66 N9        29.95R WCI  -5
WIS RAPIDS     CLOUDY     5  -3  69 NW7       30.00R WCI  -7
MARSHFIELD     CLOUDY     4  -5  66 NW10      29.97R WCI -11
RICE LAKE      CLOUDY    -3  -8  81 W5        30.07S WCI -14
$$

...NORTHEAST IOWA...


CITY           SKY/WX    TMP DP  RH WIND       PRES   REMARKS
WATERLOO       MOCLDY     3  -2  79 NW6       30.11R WCI  -8
DUBUQUE        CLOUDY     5  -4  66 NW13      30.04R WCI -12
DECORAH        CLOUDY     0  -8  71 NW8       30.06R WCI -15
MASON CITY     CLOUDY     4   0  83 N7        30.09S WCI  -8
CHARLES CITY   CLOUDY     1  -2  85 NW8       30.10R WCI -12
OELWEIN        CLOUDY     0  -6  78 NW6       30.08S WCI -12
$$

...ELSEWHERE IN IOWA...


CITY           SKY/WX    TMP DP  RH WIND       PRES   REMARKS
DES MOINES     CLOUDY    16   7  67 N3        30.13S
IOWA CITY      CLOUDY     8   1  73 NW8       30.13S WCI  -4
FORT DODGE     CLOUDY    10   3  72 E6        30.10F WCI   1
MARSHALLTOWN   CLOUDY     9   3  77 NW8       30.11R WCI  -3
CEDAR RAPIDS   CLOUDY     6   2  83 NW7       30.09S WCI  -6
$$

...NORTHERN ILLINOIS...


CITY           SKY/WX    TMP DP  RH WIND       PRES   REMARKS
CHICAGO-OHARE  PTCLDY     9   0  67 NW12      29.99R WCI  -6
CHICAGO-MIDWAY PTCLDY    11  -1  58 NW12      30.00R WCI  -3
MOLINE         CLEAR      8  -1  66 W7        30.10R WCI  -3
ROCKFORD       PTCLDY     7  -1  70 NW10      30.03S WCI  -8
PEORIA         CLEAR      8   0  69 NW7       30.10R WCI  -3
$$

NOTE: "FAIR" INDICATES FEW OR NO CLOUDS BELOW 12,000 FEET WITH NO
SIGNIFICANT WEATHER AND/OR OBSTRUCTIONS TO VISIBILITY. WIND
SPEEDS ARE IN MILES-PER-HOUR.




USA.gov is the U.S. government's official web portal to all federal, state and local government web resources and services.